• In Hungary
  • List of Countries
  • For 7 days
  • Water Temperature
  • Satellite Maps
  • Weather Map
  • News
  • Weather Widgets
  • user-avatar
    Login

    Hourly Weather Pribor

    Today, 16 July, Monday

    Time Temperature Precipitation Wind Pressure Humidity
    00:00 +18°C° 0 mm 2 mps 743 mmHg 93%
    01:00 +17°C° 0 mm 2 mps 743 mmHg 94%
    02:00 +17°C° 0 mm 2 mps 743 mmHg 95%
    03:00 +17°C° 0 mm 2 mps 743 mmHg 95%
    04:00 +17°C° 0 mm 2 mps 743 mmHg 95%
    05:00 +17°C° 0 mm 2 mps 743 mmHg 95%
    06:00 +19°C° 0.1 mm 2 mps 743 mmHg 92%
    07:00 +20°C° 0.1 mm 2 mps 743 mmHg 88%
    08:00 +21°C° 0.1 mm 2 mps 743 mmHg 85%
    09:00 +23°C° 0.4 mm 2 mps 743 mmHg 83%
    10:00 +24°C° 0.4 mm 2 mps 743 mmHg 80%
    11:00 +24°C° 0.4 mm 2 mps 742 mmHg 78%
    12:00 +25°C° 0.8 mm 2 mps 742 mmHg 77%
    13:00 +26°C° 0.8 mm 2 mps 742 mmHg 75%
    14:00 +26°C° 0.8 mm 2 mps 742 mmHg 73%
    15:00 +26°C° 0.7 mm 2 mps 741 mmHg 75%
    16:00 +26°C° 0.7 mm 2 mps 741 mmHg 77%
    17:00 +25°C° 0.7 mm 2 mps 741 mmHg 79%
    18:00 +24°C° 0.4 mm 2 mps 741 mmHg 83%
    19:00 +23°C° 0.4 mm 2 mps 741 mmHg 87%
    20:00 +21°C° 0.4 mm 2 mps 741 mmHg 90%
    21:00 +21°C° 0.4 mm 2 mps 741 mmHg 92%
    22:00 +20°C° 0.4 mm 2 mps 741 mmHg 94%
    23:00 +20°C° 0.4 mm 2 mps 741 mmHg 95%

    Tomorrow, 17 July, Tuesday

    Time Temperature Precipitation Wind Pressure Humidity
    00:00 +20°C° 1 mm 2 mps 741 mmHg 96%
    01:00 +20°C° 1 mm 2 mps 740 mmHg 96%
    02:00 +20°C° 1 mm 2 mps 740 mmHg 97%
    03:00 +20°C° 0.5 mm 2 mps 740 mmHg 97%
    04:00 +20°C° 0.5 mm 2 mps 739 mmHg 97%
    05:00 +20°C° 0.5 mm 3 mps 739 mmHg 97%
    06:00 +20°C° 0.4 mm 3 mps 739 mmHg 96%
    07:00 +21°C° 0.4 mm 4 mps 739 mmHg 94%
    08:00 +21°C° 0.4 mm 5 mps 739 mmHg 93%
    09:00 +22°C° 0.2 mm 5 mps 738 mmHg 91%
    10:00 +23°C° 0.2 mm 5 mps 738 mmHg 89%
    11:00 +25°C° 0.2 mm 5 mps 738 mmHg 86%
    12:00 +25°C° 0.9 mm 5 mps 738 mmHg 84%
    13:00 +26°C° 0.9 mm 5 mps 738 mmHg 81%
    14:00 +27°C° 0.9 mm 5 mps 737 mmHg 78%
    15:00 +27°C° 0.9 mm 5 mps 737 mmHg 80%
    16:00 +26°C° 0.9 mm 5 mps 737 mmHg 82%
    17:00 +26°C° 0.9 mm 5 mps 737 mmHg 84%
    18:00 +25°C° 0.5 mm 5 mps 737 mmHg 86%
    19:00 +23°C° 0.5 mm 5 mps 737 mmHg 89%
    20:00 +22°C° 0.5 mm 4 mps 737 mmHg 91%
    21:00 +22°C° 0.2 mm 4 mps 737 mmHg 93%
    22:00 +21°C° 0.2 mm 4 mps 737 mmHg 94%
    23:00 +21°C° 0.2 mm 4 mps 737 mmHg 96%

    Day after tomorrow, 18 July, Wednesday

    Time Temperature Precipitation Wind Pressure Humidity
    00:00 +20°C° 0 mm 4 mps 737 mmHg 96%
    01:00 +20°C° 0 mm 3 mps 738 mmHg 97%
    02:00 +19°C° 0 mm 3 mps 738 mmHg 97%
    03:00 +19°C° 0 mm 3 mps 738 mmHg 97%
    04:00 +19°C° 0 mm 3 mps 738 mmHg 97%
    05:00 +19°C° 0 mm 3 mps 738 mmHg 96%
    06:00 +20°C° 0 mm 3 mps 739 mmHg 93%
    07:00 +20°C° 0 mm 3 mps 739 mmHg 90%
    08:00 +21°C° 0 mm 2 mps 739 mmHg 87%
    09:00 +23°C° 0.1 mm 2 mps 739 mmHg 83%
    10:00 +24°C° 0.1 mm 2 mps 739 mmHg 78%
    11:00 +25°C° 0.1 mm 2 mps 739 mmHg 74%
    12:00 +25°C° 0.1 mm 2 mps 739 mmHg 77%
    13:00 +24°C° 0.1 mm 3 mps 739 mmHg 80%
    14:00 +24°C° 0.1 mm 3 mps 739 mmHg 82%
    15:00 +24°C° 0.2 mm 3 mps 739 mmHg 82%
    16:00 +24°C° 0.2 mm 3 mps 739 mmHg 82%
    17:00 +25°C° 0.2 mm 3 mps 739 mmHg 82%
    18:00 +24°C° 0.1 mm 3 mps 739 mmHg 86%
    19:00 +22°C° 0.1 mm 3 mps 739 mmHg 90%
    20:00 +21°C° 0.1 mm 2 mps 739 mmHg 94%
    21:00 +21°C° 0.1 mm 2 mps 739 mmHg 95%
    22:00 +20°C° 0.1 mm 2 mps 739 mmHg 96%
    23:00 +20°C° 0.1 mm 2 mps 740 mmHg 97%

    19 July, Thursday

    Time Temperature Precipitation Wind Pressure Humidity
    00:00 +19°C° 0 mm 2 mps 740 mmHg 97%
    01:00 +19°C° 0 mm 2 mps 740 mmHg 97%
    02:00 +19°C° 0 mm 2 mps 740 mmHg 98%
    03:00 +19°C° 0 mm 2 mps 740 mmHg 98%
    04:00 +19°C° 0 mm 2 mps 740 mmHg 97%
    05:00 +19°C° 0 mm 2 mps 740 mmHg 97%
    06:00 +20°C° 0 mm 2 mps 740 mmHg 94%
    07:00 +21°C° 0 mm 3 mps 741 mmHg 91%
    08:00 +21°C° 0 mm 3 mps 741 mmHg 87%
    09:00 +24°C° 0.1 mm 3 mps 741 mmHg 82%
    10:00 +25°C° 0.1 mm 3 mps 741 mmHg 77%
    11:00 +26°C° 0.1 mm 3 mps 741 mmHg 72%
    12:00 +27°C° 0.3 mm 3 mps 741 mmHg 70%
    13:00 +27°C° 0.3 mm 3 mps 741 mmHg 68%
    14:00 +28°C° 0.3 mm 3 mps 741 mmHg 66%
    15:00 +27°C° 0.5 mm 3 mps 741 mmHg 69%
    16:00 +27°C° 0.5 mm 4 mps 741 mmHg 72%
    17:00 +27°C° 0.5 mm 4 mps 741 mmHg 75%
    18:00 +25°C° 0.3 mm 3 mps 741 mmHg 81%
    19:00 +24°C° 0.3 mm 3 mps 741 mmHg 86%
    20:00 +22°C° 0.3 mm 3 mps 741 mmHg 92%
    21:00 +21°C° 0.2 mm 3 mps 741 mmHg 93%
    22:00 +21°C° 0.2 mm 3 mps 741 mmHg 95%
    23:00 +20°C° 0.2 mm 3 mps 741 mmHg 96%

    20 July, Friday

    Time Temperature Precipitation Wind Pressure Humidity
    00:00 +20°C° 0 mm 3 mps 741 mmHg 97%
    01:00 +19°C° 0 mm 3 mps 742 mmHg 97%
    02:00 +19°C° 0 mm 3 mps 742 mmHg 97%
    03:00 +19°C° 0 mm 3 mps 742 mmHg 97%
    04:00 +19°C° 0 mm 3 mps 742 mmHg 97%
    05:00 +19°C° 0 mm 3 mps 742 mmHg 97%
    06:00 +20°C° 0 mm 3 mps 742 mmHg 94%
    07:00 +21°C° 0 mm 3 mps 742 mmHg 90%
    08:00 +22°C° 0 mm 4 mps 742 mmHg 87%
    09:00 +23°C° 0.2 mm 4 mps 742 mmHg 82%
    10:00 +25°C° 0.2 mm 4 mps 742 mmHg 78%
    11:00 +27°C° 0.2 mm 4 mps 743 mmHg 73%
    12:00 +27°C° 1 mm 4 mps 742 mmHg 73%
    13:00 +27°C° 1 mm 4 mps 742 mmHg 73%
    14:00 +28°C° 1 mm 4 mps 742 mmHg 73%
    15:00 +27°C° 1 mm 4 mps 742 mmHg 75%
    16:00 +27°C° 1 mm 4 mps 742 mmHg 77%
    17:00 +27°C° 1 mm 4 mps 742 mmHg 79%
    18:00 +26°C° 0.3 mm 3 mps 742 mmHg 83%
    19:00 +25°C° 0.3 mm 3 mps 742 mmHg 86%
    20:00 +22°C° 0.3 mm 3 mps 743 mmHg 90%
    21:00 +22°C° 0 mm 3 mps 743 mmHg 92%
    22:00 +21°C° 0 mm 3 mps 743 mmHg 93%
    23:00 +21°C° 0 mm 3 mps 743 mmHg 94%

    21 July, Saturday

    Time Temperature Precipitation Wind Pressure Humidity
    00:00 +20°C° 0 mm 3 mps 743 mmHg 95%
    01:00 +20°C° 0 mm 3 mps 743 mmHg 95%
    02:00 +20°C° 0 mm 3 mps 743 mmHg 96%
    03:00 +20°C° 0 mm 3 mps 743 mmHg 96%
    04:00 +19°C° 0 mm 3 mps 743 mmHg 96%
    05:00 +19°C° 0 mm 3 mps 743 mmHg 96%
    06:00 +21°C° 0 mm 3 mps 743 mmHg 92%
    07:00 +22°C° 0 mm 3 mps 743 mmHg 88%
    08:00 +24°C° 0 mm 3 mps 743 mmHg 84%
    09:00 +25°C° 0.5 mm 3 mps 743 mmHg 80%
    10:00 +27°C° 0.5 mm 3 mps 743 mmHg 76%
    11:00 +28°C° 0.5 mm 3 mps 743 mmHg 71%
    12:00 +28°C° 0.8 mm 4 mps 743 mmHg 71%
    13:00 +28°C° 0.8 mm 4 mps 743 mmHg 71%
    14:00 +28°C° 0.8 mm 5 mps 743 mmHg 71%
    15:00 +28°C° 0.1 mm 4 mps 743 mmHg 71%
    16:00 +28°C° 0.1 mm 4 mps 743 mmHg 72%
    17:00 +28°C° 0.1 mm 4 mps 743 mmHg 72%
    18:00 +26°C° 0.3 mm 3 mps 743 mmHg 78%
    19:00 +25°C° 0.3 mm 3 mps 743 mmHg 84%
    20:00 +23°C° 0.3 mm 2 mps 743 mmHg 90%
    21:00 +23°C° 0 mm 2 mps 743 mmHg 91%
    22:00 +21°C° 0 mm 2 mps 743 mmHg 93%
    23:00 +21°C° 0 mm 2 mps 743 mmHg 94%
    Show more